Погода в Грозном

Россия / Республика Адыгея     44°38′49″N   40°11′13″E
В апреле 2022 года жителям России запретили посещать сайт meteo.paraplan.net по решению Генеральной прокуратуры. Аудитория сайта уменьшилась в 10 раз. Владельцы сайта не видят смысла в поддержке погодного сервера в таких условиях. Сайт будет закрыт в октябре.
темп.,
°C
ветер,
м/с
пор.,
м/с
влажн.,
%
обл.,
%
осадки,
мм/ч
давл.,
гПа
погр.,
м
30 сентября, пт
пт3000:00+16ююз33820 0.0 101633
03:00+15ю22835 0.0 101715
06:00+15ююв22833 0.0 101713
09:00+20юв12620 0.0 1018249
12:00+25в11460 0.0 1018939
15:00+26сз12380 0.0 10181497
18:00+22всв11503 0.0 101911
21:00+19юв11570 0.0 102011
1 октября, сб
сб100:00+18ю22640 0.0 102015
03:00+17ю22670 0.0 102013
06:00+16ю22690 0.0 102112
09:00+22ююв11540 0.0 1021206
12:00+27в11402 0.0 1021882
15:00+28ссв01355 0.0 10191617
18:00+23вюв11475 0.0 101911
21:00+20ю22545 0.0 101914
2 октября, вс
вс200:00+18юз226611 0.0 101820
03:00+17ю227039 0.0 101720
06:00+16ю2269100 0.0 101616
09:00+21ю1255100 0.0 1014185
12:00+26всв0144100 0.0 1012645
15:00+27всв1140100 0.0 10101058
18:00+22ююв1153100 0.0 100811
21:00+20ю2258100 0.0 100714
3 октября, пн
пн300:00+19ю2266100 0.0 100526
03:00+19з4765100 0.0 1005137
06:00+18з3872100 0.0 1006364
09:00+18з4979100 0.9 1008770
12:00+16з3791100 6.8 1010438
15:00+15зсз4793100 12.8 1012467
18:00+14з3689100 0.4 1014327
21:00+13зсз1283100 0.4 101629
4 октября, вт
вт400:00+12зюз118599 0.0 101714
03:00+11з0186100 0.0 101811
06:00+11юв1185100 0.0 101810
09:00+15в237093 0.0 1019389
12:00+18вюв3255100 0.0 10191150
15:00+18вюв32520 0.0 10191070
18:00+14в35710 0.0 102083
21:00+12вюв36866 0.0 1021112